TimeEDT,TemperatureF,Dew PointF,Humidity,Sea Level PressureIn,VisibilityMPH,Wind Direction,Wind SpeedMPH,Gust SpeedMPH,PrecipitationIn,Events,Conditions,WindDirDegrees,DateUTC
12:53 AM,37.9,28.9,70,30.30,10.0,Calm,Calm,-,N/A,,Clear,0,2013-03-15 04:53:00
1:53 AM,36.0,28.9,76,30.30,10.0,Calm,Calm,-,N/A,,Clear,0,2013-03-15 05:53:00
2:53 AM,35.1,28.9,78,30.28,10.0,Calm,Calm,-,N/A,,Clear,0,2013-03-15 06:53:00
3:53 AM,37.0,30.0,76,30.26,10.0,Calm,Calm,-,N/A,,Clear,0,2013-03-15 07:53:00
4:53 AM,37.4,30.2,75,30.25,10.0,Calm,Calm,-,N/A,,Clear,0,2013-03-15 08:53:00
5:53 AM,36.0,30.0,79,30.25,10.0,Calm,Calm,-,N/A,,Clear,0,2013-03-15 09:53:00
6:53 AM,36.0,30.0,79,30.27,10.0,Calm,Calm,-,N/A,,Clear,0,2013-03-15 10:53:00
7:53 AM,33.8,30.2,87,30.28,6.0,Calm,Calm,-,N/A,,Clear,0,2013-03-15 11:53:00
8:53 AM,39.9,32.0,73,30.30,10.0,Calm,Calm,-,N/A,,Clear,0,2013-03-15 12:53:00
9:53 AM,55.0,32.0,42,30.30,10.0,Calm,Calm,-,N/A,,Clear,0,2013-03-15 13:53:00
10:53 AM,62.1,26.1,25,30.30,10.0,SW,3.5,-,N/A,,Clear,220,2013-03-15 14:53:00
11:53 AM,66.9,25.0,21,30.29,10.0,Calm,Calm,-,N/A,,Clear,0,2013-03-15 15:53:00
12:53 PM,70.0,28.0,21,30.27,10.0,NNE,4.6,-,N/A,,Clear,20,2013-03-15 16:53:00
1:53 PM,72.0,28.0,20,30.24,10.0,Calm,Calm,-,N/A,,Clear,0,2013-03-15 17:53:00
2:53 PM,73.0,30.0,20,30.20,10.0,West,5.8,-,N/A,,Clear,270,2013-03-15 18:53:00
3:53 PM,73.9,30.9,21,30.16,10.0,Variable,5.8,-,N/A,,Clear,0,2013-03-15 19:53:00
4:53 PM,73.9,30.9,21,30.14,10.0,Variable,3.5,-,N/A,,Clear,0,2013-03-15 20:53:00
5:33 PM,71.6,33.8,25,30.15,10.0,South,13.8,19.6,N/A,,Clear,190,2013-03-15 21:33:00
5:53 PM,71.1,33.1,25,30.14,10.0,SSW,11.5,20.7,N/A,,Clear,200,2013-03-15 21:53:00
6:53 PM,66.9,34.0,30,30.15,10.0,South,9.2,-,N/A,,Smoke,190,2013-03-15 22:53:00
7:53 PM,63.0,36.0,37,30.16,10.0,South,5.8,-,N/A,,Smoke,180,2013-03-15 23:53:00
8:53 PM,60.1,37.0,42,30.17,10.0,SSW,8.1,-,N/A,,Clear,210,2013-03-16 00:53:00
9:53 PM,55.9,39.0,53,30.18,10.0,SW,5.8,-,N/A,,Clear,220,2013-03-16 01:53:00
10:53 PM,52.0,39.0,61,30.19,10.0,SSW,4.6,-,N/A,,Clear,200,2013-03-16 02:53:00
11:53 PM,48.9,39.0,69,30.19,10.0,Calm,Calm,-,N/A,,Clear,0,2013-03-16 03:53:00